GFSNGP_prec_cthk_093.txt.gz
RH
35 34 34 31 29 29 40 42 58 56 67 62 77 90 96 96 92 87 87 85 86 89 89 87 85 84 86 91 96 92 95 95 97 98 98 78 76 77 79 78 72 67 59 55
36 33 31 35 34 35 37 39 40 48 50 70 86 94 95 98 93 88 86 85 86 89 89 88 91 88 86 90 91 95 95 95 97 98 96 84 79 79 84 82 78 70 64 65
41 44 53 54 53 75 69 46 44 57 60 82 87 90 96 96 89 89 88 83 82 86 87 88 89 92 89 83 82 86 87 96 95 94 98 87 83 85 86 87 86 83 76 70
57 57 74 53 87 96 87 68 72 71 73 80 94 96 96 92 87 79 77 76 75 80 83 87 86 88 92 91 85 82 83 98 83 97 99 95 97 93 91 91 92 90 87 79
85 88 58 65 90 97 98 97 83 86 81 84 90 94 88 81 77 70 71 71 72 71 75 80 83 85 90 94 94 88 93 92 93 99 99 100 96 93 94 97 95 94 93 88
96 90 83 82 89 92 98 97 95 97 95 97 91 89 83 71 65 61 65 64 69 71 74 75 80 85 90 93 96 96 91 86 87 95 98 94 92 93 94 96 95 95 94 92
89 92 81 91 93 98 98 96 98 97 95 91 91 86 77 66 61 62 62 64 67 69 72 73 77 82 85 90 94 96 96 90 84 86 90 98 91 98 99 96 95 96 95 93
94 97 96 94 95 96 98 98 98 97 97 89 85 80 75 69 65 64 67 68 69 70 70 71 72 78 83 86 89 92 95 97 96 93 89 93 94 92 95 98 98 98 98 98
97 97 98 97 97 97 97 97 98 95 89 82 76 76 75 72 74 72 71 70 68 70 72 74 74 75 81 86 89 87 89 93 96 96 96 97 95 94 96 98 97 97 98 98
97 97 97 97 97 98 97 95 91 89 83 75 73 73 72 72 74 74 74 74 74 75 74 76 78 78 78 82 87 88 89 91 92 93 94 95 95 95 96 97 97 94 97 96
96 96 97 97 97 98 97 95 89 84 81 78 74 72 70 70 70 72 74 75 75 76 76 77 79 79 81 82 84 88 91 92 94 94 93 95 95 96 96 97 97 97 97 94
91 90 90 92 97 97 94 88 84 81 78 76 74 73 73 73 75 74 73 77 80 81 80 79 80 81 83 84 91 93 93 95 96 97 97 98 96 95 95 97 97 97 97 97
84 87 88 87 83 84 86 86 83 80 78 76 76 75 73 74 76 75 74 74 78 82 86 89 86 84 87 90 93 94 95 94 94 94 93 96 95 93 94 94 94 95 96 96
79 81 85 85 81 82 82 81 79 75 75 75 74 76 75 76 76 76 76 76 76 76 78 80 81 83 86 88 90 91 92 94 94 94 94 92 90 89 92 92 92 92 90 85
74 77 77 83 83 81 82 81 77 75 74 73 72 72 72 74 73 72 72 75 76 76 78 77 75 74 73 72 73 74 76 79 81 82 83 83 81 77 75 73 71 71 71 72
74 76 79 79 79 77 80 79 73 70 70 69 68 65 64 64 61 61 62 63 65 64 65 67 67 68 69 69 68 67 68 69 69 70 70 70 69 69 69 69 68 67 66 65
81 79 79 78 81 84 83 78 74 71 68 63 63 63 63 63 62 61 61 59 58 59 59 59 61 62 61 60 58 58 58 59 61 64 64 63 62 60 59 58 57 58 59 58
94 90 87 89 93 87 81 77 72 66 64 63 63 64 64 63 61 57 54 50 47 45 44 43 45 50 54 55 55 56 56 57 58 61 62 63 61 60 59 57 56 55 53 51
96 95 93 92 86 77 69 66 64 63 63 63 58 53 49 45 41 38 38 39 36 34 33 34 35 36 39 41 43 46 48 50 54 61 67 70 71 70 70 68 65 62 58 56
88 85 78 72 69 66 64 63 64 58 51 48 46 40 35 35 36 37 37 37 34 32 28 26 25 24 24 25 29 31 34 37 41 44 47 51 56 60 63 65 67 65 63 62
70 68 67 65 64 64 62 52 47 45 40 36 35 35 34 32 32 32 30 29 27 25 23 21 20 18 18 19 22 24 25 26 28 31 34 36 37 38 39 40 41 43 44 44
67 66 66 67 58 48 45 41 38 38 38 36 34 33 33 32 32 30 28 28 27 26 23 21 20 19 18 20 23 24 23 25 28 29 31 32 34 35 36 37 39 39 39 39
69 68 55 48 45 41 41 41 40 38 37 35 33 33 32 34 34 32 30 29 29 26 24 23 24 23 22 22 24 24 24 26 28 28 30 31 32 33 34 34 35 34 34 33
56 49 44 44 46 45 44 41 38 39 38 38 39 39 39 38 38 37 34 31 29 28 27 26 27 28 28 28 28 29 30 30 30 31 31 31 32 32 33 33 33 33 33 32
46 46 49 50 51 50 44 41 41 42 42 42 42 42 43 43 43 43 42 39 36 33 34 34 34 34 35 36 36 36 37 37 37 37 37 37 37 37 37 36 36 36 36 35
48 51 53 52 48 44 43 41 38 37 40 42 43 43 44 45 47 47 44 42 41 40 40 40 41 42 43 43 43 44 45 46 45 44 45 44 44 44 44 43 42 41 40 39
53 54 50 45 40 38 38 39 39 35 34 41 41 40 40 40 38 40 42 41 41 41 41 43 44 44 45 45 46 46 48 48 49 50 50 50 50 49 48 48 47 47 46 45

GFSNGP_prec_cthk_096.txt.gz
RH
35 35 35 35 26 20 28 29 46 20 24 21 33 47 64 81 85 90 97 90 85 82 89 93 92 91 90 91 96 98 92 88 95 96 94 99 97 92 83 77 77 77 77 65
37 31 31 29 27 33 38 44 48 35 34 30 40 55 72 82 91 92 95 92 87 82 87 91 94 93 89 87 84 92 93 92 96 98 98 98 98 93 78 80 81 81 81 74
35 36 32 27 33 52 57 64 78 79 62 47 51 62 79 87 92 97 95 89 82 79 81 89 92 92 93 89 86 85 92 92 97 98 97 97 94 99 86 85 86 83 82 81
45 38 43 46 61 63 77 84 88 74 74 72 65 83 81 92 97 96 89 86 77 75 77 82 89 92 90 91 89 86 87 95 90 97 97 97 98 97 95 88 87 85 86 85
68 75 60 65 67 80 88 85 97 87 90 87 79 75 91 91 93 87 81 74 74 75 73 75 79 85 87 91 93 92 88 86 85 98 97 96 97 98 98 94 89 88 90 89
76 87 86 75 80 83 90 93 97 97 98 91 95 96 92 90 78 70 70 66 69 72 73 74 72 75 83 88 92 92 95 91 94 92 91 97 98 99 98 96 98 94 97 95
82 84 82 90 90 88 93 97 97 97 98 96 97 97 93 82 72 68 67 69 72 72 71 72 72 72 76 83 86 91 95 95 93 94 87 97 98 98 98 97 95 98 97 97
87 96 96 93 92 93 97 97 97 97 98 98 96 90 84 78 73 72 71 70 71 72 73 74 74 73 72 73 83 86 90 92 93 93 92 89 88 95 98 95 98 98 96 97
93 96 96 97 97 97 97 97 97 97 98 94 89 85 85 84 80 80 78 77 76 75 75 74 74 74 75 76 76 81 85 86 87 88 91 91 90 90 86 91 94 97 93 95
97 97 97 97 97 97 97 97 97 97 92 86 81 79 78 78 78 76 75 75 74 75 78 76 75 75 76 76 78 80 81 84 87 88 89 89 92 93 91 90 91 94 95 94
96 97 97 97 97 97 97 97 95 92 86 82 78 78 77 75 73 72 72 72 73 74 75 76 77 78 78 79 79 81 84 86 88 89 89 89 90 91 90 93 95 96 97 96
91 90 92 97 97 97 97 97 96 91 86 79 75 73 72 71 70 71 72 73 73 76 76 76 76 75 76 78 80 82 83 85 88 91 94 93 93 93 92 93 95 95 96 96
87 89 90 90 91 95 93 88 85 82 79 77 76 73 70 69 69 69 70 69 69 71 72 73 73 74 75 79 78 80 82 84 87 92 94 96 95 95 95 96 96 96 95 95
81 84 88 85 85 85 83 81 79 76 76 73 73 72 71 70 70 70 71 72 73 74 74 72 71 69 68 69 69 71 74 78 82 83 84 82 83 88 91 92 92 92 92 89
78 80 82 84 81 82 84 83 80 74 71 68 67 66 66 66 65 65 64 64 64 65 67 67 66 65 63 63 63 61 60 61 62 63 63 66 68 70 71 74 77 77 74 74
70 76 80 82 83 81 80 80 74 70 66 64 64 65 64 62 60 58 58 58 57 56 56 57 57 56 55 54 53 51 51 52 53 54 55 56 57 58 59 61 63 64 66 67
74 75 78 83 81 80 80 79 73 67 65 67 66 60 59 58 58 55 50 46 43 40 38 36 36 38 39 39 38 37 38 40 43 47 50 51 52 52 52 53 55 58 59 59
85 83 84 83 85 85 81 76 72 70 70 65 60 57 54 51 46 40 35 33 30 30 30 30 31 31 32 34 36 37 37 37 38 39 42 45 47 49 53 56 57 56 55 55
95 95 91 86 87 83 77 72 69 67 60 54 51 46 40 33 31 33 35 37 34 32 29 26 24 22 22 22 24 25 26 27 28 31 34 38 44 48 51 53 55 59 64 65
97 96 89 85 81 77 70 65 60 52 48 44 38 33 33 33 33 33 33 31 29 27 26 24 23 21 20 20 21 22 23 23 23 24 26 27 28 30 32 36 41 45 48 51
85 81 75 69 65 64 59 51 46 42 37 35 36 36 36 34 33 31 30 29 29 29 28 26 25 24 22 22 22 23 23 21 21 24 26 27 28 30 32 33 35 37 38 39
70 68 66 65 58 49 45 41 38 37 36 36 35 32 31 31 31 31 30 30 30 30 29 28 27 26 25 23 23 23 23 23 25 26 28 28 29 31 33 34 36 37 37 38
66 68 59 48 45 42 41 41 39 38 34 31 31 31 32 34 34 33 34 34 33 32 32 30 29 28 27 26 26 27 27 28 29 30 31 31 32 33 33 34 35 35 35 36
66 50 46 44 44 44 44 41 37 34 32 30 30 31 34 37 39 40 40 40 38 37 35 33 31 30 30 30 31 32 33 34 35 36 37 37 37 37 37 37 38 38 37 35
48 46 46 47 47 46 42 37 35 31 30 31 33 35 37 39 43 46 46 46 44 41 38 36 34 34 35 36 37 38 39 40 41 41 42 43 44 44 44 44 44 44 43 42
46 49 51 52 50 45 39 35 33 31 30 31 34 36 38 41 44 44 45 45 42 39 37 36 37 38 39 40 42 43 44 45 45 44 45 47 48 49 50 49 49 49 49 48
49 52 54 52 46 42 39 36 32 31 31 32 35 39 42 43 41 39 40 39 38 36 37 39 41 43 45 47 49 50 51 52 52 52 51 50 51 51 51 51 51 51 52 51

GFSNGP_prec_cthk_102.txt.gz
RH
49 51 46 41 36 32 28 21 27 17 18 18 31 40 42 44 44 36 38 51 58 61 63 75 76 77 85 92 96 95 94 97 94 98 90 98 95 96 98 91 85 85 81 82
39 36 32 26 22 22 21 19 22 23 27 49 46 54 56 56 53 46 46 62 68 70 77 86 76 78 90 93 96 97 97 98 98 97 96 96 95 94 94 97 95 94 91 91
23 24 23 21 24 25 25 28 42 48 52 49 58 68 65 65 65 57 58 68 76 86 89 87 81 83 91 95 96 98 98 94 95 99 98 97 94 97 99 96 94 93 93 95
27 28 42 52 45 48 50 53 58 59 59 64 77 81 75 75 70 64 74 88 85 94 90 86 83 85 91 95 97 98 98 96 95 98 98 98 99 97 98 99 98 98 98 97
51 48 44 58 61 65 69 67 68 68 70 84 89 88 86 80 70 93 97 96 95 91 90 87 86 86 86 90 95 97 98 98 97 94 97 98 98 96 96 97 98 98 98 99
55 59 60 74 69 72 80 79 78 78 86 87 90 87 94 97 97 97 97 95 90 89 90 89 85 83 79 81 89 94 96 97 98 96 98 96 97 97 99 99 99 99 98 98
61 67 75 76 77 83 86 89 91 88 89 93 94 94 96 96 97 97 93 90 91 90 87 84 83 81 77 77 78 85 90 94 95 95 96 95 95 97 98 98 98 98 98 98
64 73 81 78 79 87 94 95 95 96 97 98 97 97 97 97 97 94 90 90 90 88 83 81 79 78 77 75 75 75 77 84 89 90 89 91 94 97 97 97 98 98 98 98
78 80 83 84 88 92 95 96 97 97 97 97 97 97 97 97 97 97 93 88 86 83 81 79 77 75 73 73 72 71 70 71 73 77 83 88 86 88 94 96 96 96 97 97
81 82 86 87 92 96 97 97 97 97 97 97 97 97 97 97 97 95 92 88 83 79 75 73 72 71 69 68 68 69 69 69 70 70 71 73 78 84 85 88 90 93 96 96
86 87 88 90 94 96 97 97 97 97 97 95 90 88 88 86 83 78 74 69 67 66 64 63 63 63 62 60 60 61 62 63 65 67 69 70 71 72 75 81 84 87 89 90
84 88 93 94 97 97 97 97 98 97 92 88 85 82 79 76 73 71 68 67 64 60 58 57 53 49 47 49 48 50 51 51 52 56 60 64 67 69 71 74 75 78 82 84
81 91 94 96 95 97 97 97 96 95 90 88 83 78 74 70 67 64 62 59 56 54 51 48 45 43 41 40 39 40 41 46 47 45 48 49 50 54 59 64 67 70 74 74
82 90 96 96 97 97 94 91 89 87 83 76 71 69 65 62 61 59 57 55 52 50 46 43 38 34 30 28 27 27 31 29 34 34 36 39 41 45 47 48 49 47 51 56
82 90 93 95 95 95 91 88 84 79 73 69 67 64 62 60 58 54 49 43 38 33 30 28 27 26 26 26 26 24 24 25 32 32 31 30 32 32 35 37 39 43 47 46
73 83 88 90 91 89 88 86 80 73 69 67 65 62 60 53 46 39 34 29 27 26 25 23 22 21 21 20 21 25 28 22 25 30 31 32 32 32 33 33 34 34 35 33
72 73 78 84 86 83 82 79 76 72 69 66 63 55 49 41 33 29 28 28 26 24 22 21 20 19 18 18 22 27 27 27 27 28 29 29 29 29 29 30 33 35 36 31
76 73 73 74 76 80 80 76 74 70 67 60 49 46 38 31 30 28 26 26 24 23 22 21 20 20 20 20 20 28 29 29 29 29 29 30 30 31 31 31 31 30 30 29
81 76 74 77 77 78 76 74 71 65 54 46 42 34 30 29 29 29 27 25 23 24 22 21 22 23 23 23 24 31 32 32 31 32 32 32 33 32 33 33 32 31 31 30
85 82 80 80 78 76 74 70 64 51 45 37 31 30 29 27 25 23 21 21 22 24 26 27 27 27 27 26 26 34 34 34 33 32 32 31 31 32 33 32 31 32 32 31
90 87 86 84 77 74 68 61 48 43 33 31 30 26 25 23 22 22 27 32 28 29 31 31 32 32 32 31 35 35 33 31 30 29 28 28 29 32 34 34 35 35 36 34
94 93 89 77 70 65 56 46 37 34 32 29 26 26 26 26 25 26 28 32 33 34 36 37 36 34 32 31 32 31 29 27 26 26 28 29 30 32 35 36 38 40 41 41
82 79 75 73 68 52 41 38 37 35 30 30 30 30 33 33 32 36 40 36 37 39 41 41 37 35 32 31 31 29 28 29 32 34 36 36 36 36 37 38 38 40 42 44
73 72 74 61 47 43 44 42 36 33 32 33 34 34 34 36 37 38 39 39 41 43 43 40 38 35 33 32 31 33 36 40 43 44 45 45 47 47 47 46 46 46 46 45
73 75 57 46 48 48 42 37 34 35 37 39 38 38 36 33 32 39 37 41 43 44 44 42 39 37 34 34 37 40 42 44 46 49 50 51 53 54 55 55 54 53 53 53
76 62 49 50 51 48 42 40 43 44 44 43 43 37 34 32 33 36 36 39 44 44 43 41 36 33 35 38 40 42 44 46 48 49 51 55 56 57 58 60 60 61 61 62
71 57 51 51 52 50 45 45 45 44 42 44 42 36 33 32 36 41 42 46 46 44 39 36 34 36 37 40 44 46 47 48 49 50 52 55 58 60 61 63 65 67 69 68

GFSNGP_prec_cthk_108.txt.gz
RH
69 56 56 61 53 50 47 51 59 57 52 66 65 69 69 61 57 53 48 47 45 45 46 45 50 53 56 57 55 54 58 59 62 65 77 82 89 91 86 90 92 88 91 90
71 60 55 53 47 48 48 47 45 45 47 67 68 65 61 51 45 44 48 46 50 50 51 54 53 58 60 59 59 63 62 63 68 73 86 88 90 89 91 93 92 99 94 94
67 62 56 53 49 41 40 34 38 37 58 60 50 49 52 50 48 52 59 60 57 59 59 61 61 69 69 69 67 66 66 71 76 83 91 93 94 97 96 97 98 97 97 98
57 51 45 55 47 41 37 47 47 46 51 54 54 51 55 58 60 66 72 69 65 66 68 71 71 77 79 80 82 78 77 80 87 92 95 95 96 97 97 98 98 98 98 97
50 40 55 55 49 48 42 53 48 50 50 54 58 61 67 73 82 79 81 73 77 82 87 88 89 88 87 91 88 87 88 93 95 97 97 97 97 98 98 97 98 98 97 97
46 49 56 76 59 52 49 61 62 68 67 71 75 77 82 84 82 91 90 89 93 97 98 93 97 97 97 98 96 95 95 94 96 97 97 97 97 97 97 97 98 97 96 98
49 48 71 65 59 55 62 69 74 77 78 81 81 84 88 86 87 95 97 98 98 98 97 97 97 97 97 97 96 94 91 90 91 90 90 93 95 95 96 97 98 97 96 97
50 59 66 66 61 62 68 72 77 81 84 87 92 91 91 89 93 96 97 97 97 97 96 97 97 97 96 92 88 84 82 79 78 78 80 81 83 84 88 93 96 96 97 96
68 77 72 66 64 67 74 80 90 90 91 94 93 88 88 95 96 97 97 97 97 97 96 94 89 82 75 70 63 60 59 59 59 56 54 55 57 63 69 73 76 83 89 95
72 67 64 64 69 75 81 88 88 90 94 94 96 96 96 96 97 97 97 96 92 85 77 70 66 59 56 57 52 46 41 42 41 40 40 40 40 40 42 44 49 53 60 69
66 70 69 69 74 83 87 87 89 90 93 94 95 96 96 94 90 88 84 79 73 68 60 52 46 44 42 40 36 34 32 29 30 29 30 30 30 30 29 30 27 30 35 40
73 65 71 72 77 85 87 91 94 92 90 89 84 83 82 81 80 74 62 57 54 50 44 38 30 25 24 25 26 25 26 26 24 25 25 25 25 26 27 28 27 22 21 22
68 70 72 78 82 88 89 93 92 91 83 83 82 82 76 67 61 57 57 53 45 35 27 23 21 20 22 22 22 20 23 24 23 23 23 24 24 25 24 26 26 25 23 22
60 68 74 81 85 89 93 95 92 88 81 79 73 67 63 60 58 54 45 35 27 23 22 20 18 17 18 21 25 25 22 25 26 26 25 25 25 24 24 24 25 25 22 22
61 65 74 80 85 88 90 89 87 82 74 70 64 61 60 56 48 38 31 29 25 21 18 17 16 15 19 27 28 36 31 28 32 37 35 35 34 34 32 29 29 25 22 18
61 69 76 81 85 88 89 86 83 78 71 66 62 61 53 43 35 27 24 24 21 19 17 15 16 17 19 21 26 30 31 31 31 32 34 31 31 36 34 34 33 32 26 23
63 72 78 84 88 90 92 87 82 75 69 63 60 52 42 35 28 25 23 21 18 16 15 16 17 19 20 21 25 31 31 29 29 29 29 29 29 36 35 34 34 33 34 29
70 74 80 84 93 91 91 88 81 77 69 61 54 44 33 28 24 23 20 18 18 17 17 18 20 21 22 22 25 30 29 29 28 29 28 27 29 29 32 31 32 33 32 32
80 81 82 84 93 94 89 82 74 73 69 57 45 33 27 25 23 21 20 20 22 20 21 23 25 27 24 24 27 30 29 28 29 29 27 26 27 26 32 32 32 32 33 33
91 87 82 83 87 89 88 86 79 70 61 47 34 28 25 23 22 21 23 26 23 23 25 25 26 30 25 27 31 30 30 30 30 30 30 28 28 29 31 33 34 34 35 37
91 90 87 80 79 82 77 75 72 63 52 37 29 26 23 24 24 26 33 35 32 29 32 33 31 28 27 28 34 33 34 33 31 33 32 32 33 32 34 36 37 39 39 39
89 93 87 80 80 79 76 71 69 56 40 31 27 26 27 27 29 32 37 39 37 33 34 37 35 32 31 30 35 37 38 38 38 36 36 35 36 38 38 41 41 43 43 45
91 93 92 89 85 80 75 70 59 41 32 28 28 31 36 36 37 42 48 41 39 35 36 39 39 36 34 33 37 39 38 37 37 37 38 40 41 45 48 48 47 47 49 49
94 95 92 90 84 78 70 58 42 33 29 29 31 31 35 39 44 48 42 37 35 35 38 43 43 40 37 39 43 39 36 35 36 36 37 38 42 44 45 51 53 53 50 51
94 93 90 83 79 72 57 43 36 31 32 35 35 35 35 38 38 40 34 34 39 42 45 49 43 40 40 39 38 35 35 35 35 36 35 36 38 42 45 46 51 56 57 58
89 87 81 82 78 61 48 43 38 37 42 43 43 41 38 37 37 36 37 43 48 49 50 47 43 40 40 38 35 33 32 33 34 34 35 36 37 39 40 42 47 53 59 61
80 81 81 81 68 53 48 49 49 48 53 48 42 39 38 38 39 43 50 53 50 49 45 43 42 42 39 36 33 32 32 33 34 34 35 37 38 40 41 43 45 49 54 58

GFSNGP_prec_cthk_111.txt.gz
RH
71 72 62 66 63 64 67 65 70 64 76 81 77 75 75 74 68 61 57 53 48 46 47 49 49 49 53 53 54 57 58 58 60 60 58 55 56 60 63 74 79 84 85 89
78 72 58 59 59 54 53 55 56 64 76 75 73 72 71 68 63 57 54 54 55 55 53 51 48 51 52 56 61 64 63 67 66 66 64 62 63 66 73 80 86 89 91 91
89 75 70 62 61 61 63 67 65 67 73 71 64 62 62 59 57 53 53 54 54 54 51 52 54 58 61 62 69 69 69 71 72 72 71 69 68 75 84 88 91 93 94 96
78 66 74 70 65 64 67 65 60 53 52 52 52 51 50 47 46 49 51 53 61 55 57 63 67 70 70 74 76 80 80 81 81 80 79 79 80 85 92 94 93 93 94 95
77 73 79 69 67 63 58 56 48 50 53 52 53 51 52 56 60 64 68 70 74 76 78 83 82 88 87 89 90 92 91 93 91 89 92 95 96 95 97 97 96 93 97 98
67 74 72 68 53 58 52 53 47 53 59 66 66 69 77 77 76 73 80 84 90 94 96 96 97 97 97 97 97 97 96 94 94 92 91 90 94 95 97 97 97 96 97 97
73 69 70 65 59 60 62 53 54 62 70 71 76 79 80 81 84 83 92 95 96 96 97 97 97 97 97 96 96 95 92 88 82 80 79 78 81 82 84 86 91 94 95 96
53 62 71 63 64 64 61 59 63 71 79 80 82 87 89 88 86 91 96 96 97 97 97 97 97 95 91 86 79 77 73 70 63 56 52 49 52 56 57 59 63 69 76 82
59 67 70 68 67 61 59 69 78 81 84 87 90 91 86 90 96 96 97 97 97 97 93 86 81 76 69 63 57 53 50 46 42 37 37 37 30 26 27 30 37 40 41 46
68 67 69 64 62 62 69 80 85 85 87 92 93 94 96 96 96 97 97 95 88 79 73 68 61 56 53 42 33 29 25 23 23 23 23 24 23 22 23 21 17 20 23 27
67 71 65 62 64 70 79 84 87 88 92 95 95 97 96 95 94 89 83 79 72 59 48 39 32 26 25 23 23 23 23 21 21 22 23 23 24 24 24 24 21 20 20 19
61 56 61 65 68 73 83 88 89 90 91 91 89 89 88 85 81 74 64 53 45 36 27 23 22 21 20 20 20 21 22 22 22 23 24 24 23 24 24 24 23 19 20 22
61 65 64 69 72 76 83 90 91 90 89 86 84 80 74 69 59 53 48 38 27 23 20 18 18 19 19 20 21 22 22 24 25 25 26 27 26 26 26 25 23 20 18 23
55 58 68 72 77 80 88 92 91 91 84 77 74 70 62 55 51 43 31 25 22 20 18 18 15 16 20 23 24 26 26 30 31 31 30 30 31 29 28 24 23 21 19 19
51 55 61 72 78 83 89 94 92 89 80 72 69 61 55 49 40 32 28 23 20 19 17 15 15 16 19 25 28 30 29 29 29 27 26 25 26 26 25 25 22 21 20 19
52 56 63 71 79 82 86 89 88 85 75 68 63 57 52 41 31 26 22 20 19 17 15 15 15 17 22 27 26 27 27 27 28 27 27 27 28 27 27 27 26 22 20 19
54 58 64 72 80 83 86 88 86 81 72 66 59 55 43 32 25 21 21 19 17 16 17 17 19 20 23 27 26 28 27 27 27 26 24 25 26 26 29 30 30 31 29 27
57 62 70 75 83 88 91 90 87 80 73 65 58 45 36 28 22 21 20 20 18 18 19 20 21 23 24 27 27 28 27 27 27 26 26 26 26 27 29 31 32 34 34 33
63 71 77 86 89 94 96 94 88 83 77 67 51 40 32 24 22 20 19 19 20 22 23 24 25 27 27 30 29 28 28 26 27 28 28 28 27 27 27 29 30 31 33 35
75 82 87 94 95 97 96 93 90 85 79 64 47 35 27 23 22 22 27 29 25 26 27 29 30 29 28 30 30 32 30 30 31 31 31 30 30 30 30 28 28 28 32 34
90 95 92 92 94 98 97 94 91 84 72 55 40 29 26 24 27 29 30 35 31 31 32 32 34 34 31 30 32 33 33 34 33 34 34 35 36 36 37 35 32 31 32 33
96 97 96 93 92 94 96 92 89 82 63 45 34 29 28 28 31 33 37 38 35 36 32 33 38 38 35 33 35 36 35 35 33 33 32 33 33 33 34 36 38 40 42 41
93 97 98 95 92 89 90 86 78 69 50 40 31 32 35 36 35 38 40 38 37 34 31 37 41 41 38 37 37 37 37 34 33 31 30 29 30 32 34 37 39 43 47 50
96 97 98 95 92 90 87 81 71 54 45 34 33 35 36 37 40 42 42 39 33 32 39 45 44 43 39 36 37 36 34 33 32 30 29 28 29 30 31 33 37 43 49 52
94 93 95 96 95 89 84 74 59 46 34 31 33 33 36 41 43 42 37 32 34 43 48 45 44 42 39 37 35 32 33 32 30 29 28 27 28 29 31 34 36 39 44 52
97 96 95 92 88 82 77 66 49 38 33 35 35 40 43 41 36 34 34 40 49 50 48 45 44 40 39 36 35 33 31 28 27 25 26 26 28 30 32 33 35 38 41 45
91 90 86 84 86 83 72 54 43 39 41 44 47 48 44 39 38 40 47 55 53 48 45 45 41 39 36 35 34 32 29 27 25 24 26 27 29 31 33 35 38 40 43 45

GFSNGP_prec_cthk_114.txt.gz
RH
82 77 76 72 62 65 77 79 80 68 81 85 84 82 82 81 77 72 67 63 62 56 53 55 55 54 53 51 53 55 55 58 59 61 60 61 57 54 54 56 56 59 66 72
93 81 71 64 63 59 63 68 77 73 80 78 80 80 81 78 71 61 57 54 49 51 52 56 55 57 57 58 59 60 60 61 64 67 72 70 65 63 63 62 62 69 75 80
95 91 89 79 61 69 69 71 74 75 70 74 81 77 69 63 61 59 55 54 57 60 63 60 59 62 65 68 67 64 66 67 69 71 70 71 72 72 71 69 73 79 80 87
93 90 96 78 74 70 75 80 77 76 77 72 69 63 57 54 52 51 52 58 62 63 65 66 67 72 76 74 73 74 73 74 73 77 79 81 81 79 79 80 83 86 86 92
91 86 85 80 75 76 73 75 68 65 63 60 55 52 54 53 55 60 65 67 69 73 76 82 83 84 85 85 85 85 86 85 83 82 83 82 81 82 81 84 90 92 94 96
88 82 89 80 73 67 61 66 60 53 47 48 53 60 67 69 71 74 76 76 84 87 91 94 95 96 96 96 97 96 93 87 82 78 74 72 69 68 73 79 84 89 94 96
83 84 83 73 69 65 62 58 53 50 53 56 63 68 72 77 80 79 81 85 89 93 95 95 96 97 96 92 87 79 76 65 57 51 45 42 42 47 47 49 52 54 61 73
82 85 81 68 60 59 58 56 55 55 58 72 79 78 82 83 87 85 88 93 93 93 93 94 94 88 83 76 67 58 51 46 39 35 35 36 35 34 30 27 28 35 37 37
82 74 63 57 60 62 55 53 60 66 73 76 82 86 87 85 87 90 93 93 93 90 86 82 75 67 60 52 47 40 32 26 23 20 19 17 16 16 15 17 21 20 20 27
67 58 54 65 68 62 56 61 72 75 75 79 83 88 86 89 92 92 92 88 79 70 66 60 53 47 34 28 25 20 19 19 19 20 21 22 21 20 20 18 18 19 21 21
65 68 64 67 60 58 63 70 78 80 81 84 87 90 91 91 90 88 81 73 65 59 48 34 25 20 19 19 19 20 21 23 25 26 26 26 25 26 24 21 18 22 22 21
56 61 62 58 60 62 68 75 81 83 86 89 90 91 90 88 84 78 71 61 43 28 22 19 20 21 22 21 22 26 27 26 26 26 26 24 23 22 24 22 20 18 20 21
54 53 55 59 63 66 69 76 84 85 87 86 87 86 84 79 71 58 46 33 25 17 15 20 23 22 25 27 25 24 25 24 23 24 25 25 24 22 21 20 19 18 16 18
55 58 64 64 68 70 75 82 88 89 89 88 85 78 73 64 52 41 29 22 17 17 19 21 22 23 24 23 23 24 25 27 27 27 26 26 26 25 24 21 19 18 16 15
51 53 55 62 68 76 80 88 90 92 89 83 76 72 63 52 40 29 21 18 19 20 19 17 17 18 21 23 23 26 27 28 27 25 23 24 23 22 22 21 20 20 19 18
52 51 54 60 68 77 84 89 91 93 88 79 72 66 57 42 31 25 21 20 21 19 17 17 17 19 20 21 25 26 27 27 25 23 21 21 22 22 23 22 22 22 22 20
49 53 55 60 68 76 85 87 89 90 88 78 69 63 48 35 29 23 20 20 19 17 17 18 19 20 24 26 27 28 28 27 25 23 22 23 23 24 24 24 23 23 25 25
47 52 60 63 71 76 85 88 89 90 87 79 69 57 40 32 26 22 21 19 18 18 19 22 22 24 26 29 30 30 29 27 25 25 25 24 23 23 23 23 24 23 24 25
56 57 63 69 75 82 87 92 91 90 87 81 70 50 38 29 26 23 20 20 19 21 23 23 25 27 29 32 32 32 31 29 27 28 27 26 26 28 28 28 26 26 25 24
64 69 72 81 85 91 95 97 94 92 88 81 67 47 36 28 27 23 23 23 24 24 26 29 32 31 31 33 34 34 33 30 28 28 28 27 28 29 30 30 31 31 33 33
81 81 85 91 96 98 98 97 97 95 92 83 66 47 35 30 29 30 31 29 27 26 31 34 36 34 36 36 35 35 32 30 28 28 28 27 26 26 26 27 29 31 33 35
88 91 94 98 98 98 97 97 97 95 89 77 58 45 36 34 34 32 34 35 32 34 36 36 37 42 43 39 36 33 32 31 30 29 28 27 27 26 25 26 27 29 32 37
93 98 98 98 98 98 97 97 97 96 86 67 53 42 39 38 38 35 35 35 38 39 36 35 46 47 43 39 36 34 32 30 30 29 29 30 28 26 25 25 26 29 34 38
89 95 98 98 98 98 97 97 96 91 77 61 46 43 43 39 37 38 40 41 41 38 36 49 50 45 41 40 36 32 29 28 27 27 27 26 25 24 23 24 25 27 30 33
97 98 98 97 98 98 98 97 92 80 66 50 46 42 40 41 39 41 43 40 37 39 52 52 46 43 43 40 34 30 28 28 27 26 25 24 24 23 24 26 27 28 30 33
95 95 96 97 98 97 97 95 84 72 57 44 41 40 41 40 43 44 42 41 47 56 54 48 47 47 43 36 32 29 28 27 26 26 26 25 24 25 26 28 29 31 33 35
98 97 97 96 96 94 91 86 78 67 49 39 38 40 43 47 45 44 47 52 59 56 51 49 49 43 37 33 30 28 28 28 27 27 26 25 25 27 28 30 32 34 36 39

GFSNGP_prec_cthk_117.txt.gz
RH
81 71 70 80 93 91 87 76 87 76 86 83 82 79 85 87 85 80 72 61 54 48 48 51 58 60 61 62 61 58 56 61 63 62 60 59 59 58 59 59 57 56 55 54
75 68 69 77 79 61 65 78 83 85 91 86 82 82 87 89 88 81 68 61 54 53 58 61 63 63 63 66 66 66 68 68 70 66 65 69 67 67 67 66 63 61 60 59
74 75 91 95 69 69 74 79 83 87 80 85 84 82 85 85 83 74 65 57 56 61 66 66 70 72 73 72 72 70 72 73 73 72 72 71 68 70 71 71 70 68 67 66
86 88 95 77 79 79 79 79 76 75 76 75 81 85 85 77 69 63 55 57 63 69 68 72 75 81 80 77 77 78 79 77 74 74 71 70 68 67 67 68 67 71 72 69
92 89 82 78 79 81 76 80 79 81 83 84 85 75 69 62 53 54 60 64 68 68 73 76 81 83 84 86 86 86 83 81 78 75 70 65 58 53 50 49 50 52 57 66
95 93 90 75 76 76 77 77 75 72 70 69 66 63 55 54 59 63 68 72 73 76 80 86 89 91 94 96 95 89 79 71 63 55 45 38 33 32 33 37 41 46 46 47
92 90 81 75 75 74 74 66 66 65 63 57 52 53 58 64 65 68 74 77 78 82 87 89 91 92 85 82 79 74 58 47 40 31 29 30 33 36 35 35 33 30 30 35
88 91 81 74 77 77 71 69 57 54 53 54 57 64 74 77 76 78 82 83 87 88 91 92 89 85 78 66 51 43 41 35 34 31 23 17 14 14 14 16 15 21 26 25
82 79 78 78 76 69 61 57 54 50 55 63 71 75 80 83 81 80 83 88 90 89 85 81 73 61 51 50 44 33 24 19 19 18 18 18 17 17 15 15 18 18 17 17
85 82 83 81 65 61 60 54 52 60 67 71 74 80 86 86 83 87 91 86 83 81 75 63 52 48 32 30 26 22 21 22 22 22 23 24 23 21 18 16 17 21 16 14
82 82 76 65 52 63 63 55 59 69 71 74 79 84 86 86 89 91 87 78 70 64 52 42 35 22 20 21 22 23 23 24 25 26 25 24 23 21 19 19 19 21 22 18
70 60 63 59 64 60 56 60 67 73 76 80 82 86 90 92 91 84 74 66 59 45 27 22 21 21 22 22 23 23 24 25 25 24 23 22 21 21 21 21 19 18 21 19
62 54 58 65 60 58 60 65 72 78 81 83 86 89 89 86 82 74 65 53 29 19 18 20 21 23 23 22 23 24 23 23 23 22 23 24 24 22 21 20 18 17 16 19
56 51 56 58 61 64 65 68 74 79 82 85 85 87 85 79 72 58 35 24 17 17 20 21 21 19 21 24 25 24 25 26 25 26 28 26 24 24 23 21 18 17 18 17
55 57 60 61 65 68 69 73 79 85 87 87 87 84 77 69 53 33 24 18 16 18 19 20 19 19 21 23 22 23 24 27 27 25 23 21 21 20 18 17 17 17 18 17
51 51 54 56 63 67 74 79 83 90 90 88 84 78 70 57 37 27 20 17 18 19 19 19 19 19 21 22 23 25 28 29 26 23 21 20 19 18 17 17 17 18 18 19
48 54 54 55 60 67 74 81 85 91 91 88 82 73 64 49 32 23 19 19 19 19 19 19 19 21 22 22 24 27 30 29 27 25 23 22 21 20 20 19 18 19 20 19
40 43 50 56 62 67 76 82 87 90 91 87 82 73 62 42 29 21 22 21 19 20 20 20 21 22 24 26 29 32 32 31 30 27 26 25 24 24 24 24 24 24 24 23
47 51 53 58 65 71 77 80 85 89 91 89 84 75 55 37 27 26 25 23 21 22 21 22 23 26 28 29 32 34 34 34 30 27 27 27 25 25 25 24 25 25 25 27
48 54 60 68 74 76 82 85 88 91 94 91 86 74 50 36 30 31 28 24 24 23 23 25 28 29 30 34 38 38 37 34 30 27 26 25 24 23 23 23 24 24 25 26
58 63 71 78 86 90 89 90 94 97 96 93 86 68 51 39 37 34 32 28 26 27 28 28 30 33 37 42 40 38 37 34 29 27 25 24 23 22 21 21 21 23 24 26
71 80 87 92 94 93 97 98 98 98 97 93 84 66 52 43 43 45 40 36 31 30 30 30 34 39 47 47 41 39 37 30 27 26 25 22 21 20 20 20 20 21 23 26
84 90 95 97 97 98 98 98 97 98 98 97 87 66 51 48 47 46 45 41 36 34 33 35 40 49 54 48 41 39 33 28 26 25 23 22 22 22 21 21 22 23 23 23
87 98 98 98 98 98 98 97 97 97 97 92 75 61 51 50 52 52 50 42 39 37 37 41 49 59 54 45 41 35 30 28 27 24 23 23 23 23 22 24 24 23 24 25
84 94 98 98 98 97 98 98 98 98 95 86 71 55 53 52 51 50 46 42 39 41 43 51 63 58 49 45 39 33 31 29 26 25 24 24 24 24 25 25 24 25 27 29
95 97 98 98 98 98 98 97 97 97 91 80 68 58 53 52 50 48 45 41 43 45 55 67 62 52 48 43 36 34 32 29 27 26 25 25 26 27 26 25 26 28 30 32
98 97 97 97 98 98 98 97 97 96 86 77 63 54 50 46 46 46 44 46 51 59 68 64 54 50 46 40 37 34 31 29 27 28 28 28 28 27 27 28 30 31 33 34

GFSNGP_prec_cthk_123.txt.gz
RH
66 69 78 79 73 77 83 80 89 56 62 60 63 85 94 91 90 87 88 86 85 80 69 59 53 56 59 61 64 67 69 67 65 64 64 62 65 65 66 68 66 65 63 61
69 68 78 81 75 78 78 71 73 72 64 63 77 89 91 91 89 93 89 89 86 78 64 55 56 61 60 65 68 69 71 71 71 73 71 63 59 54 53 51 47 46 50 57
72 71 87 92 61 67 68 63 60 66 54 66 73 77 89 92 93 93 88 90 86 72 60 59 63 61 64 69 74 74 71 68 64 63 61 58 52 44 38 34 32 30 28 31
81 90 95 56 58 60 64 54 60 62 61 59 69 85 91 94 92 93 91 89 80 64 61 64 66 70 77 82 83 81 75 73 67 60 52 44 43 39 33 29 26 25 27 27
87 86 80 70 62 62 60 49 55 53 57 66 77 90 91 91 88 92 92 78 68 60 63 70 74 81 87 90 88 84 77 72 56 48 46 44 30 25 28 30 31 28 23 24
97 94 83 58 57 55 52 49 45 49 59 74 84 88 84 91 88 84 74 63 58 65 70 77 81 89 90 84 75 62 49 42 42 45 35 29 34 33 29 25 19 17 17 21
97 95 80 58 56 58 62 51 50 61 72 80 83 84 85 80 77 72 60 59 70 78 79 84 85 85 82 79 65 54 49 41 32 35 41 33 19 15 14 15 17 15 18 18
89 92 81 55 57 59 56 57 64 73 76 78 78 76 75 73 64 60 63 74 82 82 86 90 90 81 68 48 47 45 46 44 34 21 19 18 17 16 16 15 14 13 12 11
79 70 65 64 64 59 60 66 73 77 77 75 74 70 62 60 61 72 79 85 85 87 91 91 82 53 41 51 39 36 33 29 23 22 20 19 18 17 18 18 17 16 16 15
80 72 70 72 69 69 71 72 73 73 69 67 64 63 68 71 76 80 84 87 85 90 88 74 58 47 41 41 38 29 26 24 23 22 21 21 22 25 29 28 27 26 25 23
78 73 74 73 73 75 79 78 74 71 71 63 64 70 72 77 82 87 89 86 90 84 71 63 43 41 35 30 25 24 24 23 23 24 24 25 25 30 29 28 27 26 24 23
72 72 74 77 75 79 78 81 78 69 62 65 70 74 79 84 87 87 88 88 85 73 48 44 38 29 26 24 24 23 22 23 25 26 26 26 26 23 21 21 26 25 23 22
79 82 81 79 74 78 79 81 73 61 62 68 76 79 84 89 91 92 84 83 69 53 42 33 30 23 23 22 22 22 22 23 25 26 27 26 24 21 20 20 20 23 19 21
83 84 87 83 78 75 74 67 61 64 72 78 80 83 87 92 94 86 78 70 57 43 32 27 22 22 21 20 20 20 20 22 26 27 28 27 26 24 22 21 21 20 18 16
89 85 77 69 66 67 68 66 65 70 74 78 81 86 90 92 86 77 70 58 44 32 23 23 22 21 20 19 20 20 22 25 27 29 30 29 27 24 23 22 22 22 18 15
84 76 70 67 64 62 68 70 72 74 76 78 83 88 91 89 81 71 61 42 28 22 22 22 22 20 20 21 20 21 24 28 30 32 31 28 26 24 23 22 21 19 17 15
81 78 62 58 64 67 71 74 76 78 79 81 89 92 90 84 77 66 49 32 24 22 23 23 21 20 20 20 21 24 28 30 32 32 32 30 27 26 25 23 20 18 17 17
43 45 51 55 58 60 65 72 77 81 84 88 93 94 90 83 73 59 39 30 23 23 24 23 21 20 20 21 23 26 30 31 32 32 32 31 30 29 27 24 19 17 17 17
44 42 43 46 50 55 62 69 72 79 84 91 94 95 90 81 70 54 38 31 26 25 24 23 23 23 22 22 24 27 30 33 33 34 32 31 31 31 27 23 20 18 18 18
39 39 42 45 50 55 62 67 74 80 83 87 93 95 90 82 71 52 38 34 34 31 27 26 27 26 25 25 26 29 33 34 36 35 34 35 34 31 27 23 21 20 20 20
43 45 47 49 52 58 66 71 76 81 85 89 91 94 92 85 70 52 43 39 38 36 35 33 32 31 30 29 30 33 37 38 39 38 38 37 34 30 26 23 22 21 21 21
50 49 52 56 59 64 70 79 83 86 90 91 97 97 93 82 66 53 46 43 44 44 42 42 42 41 38 35 36 39 42 44 43 42 41 38 33 28 26 24 23 23 23 23
56 56 62 68 72 80 85 91 97 97 94 97 97 97 92 81 64 51 48 48 50 50 51 50 48 48 44 41 44 47 48 47 47 45 42 36 31 29 26 24 25 25 24 23
62 68 79 78 82 87 96 92 93 95 96 97 97 98 90 77 66 58 55 56 55 58 58 58 54 52 48 46 49 51 51 50 49 46 40 35 32 28 26 27 27 26 24 24
68 76 82 87 89 92 91 94 96 97 94 95 97 95 85 74 63 61 62 65 67 64 59 57 54 50 47 51 56 55 54 53 50 43 37 35 31 28 28 28 27 26 26 25
74 75 79 88 93 96 97 97 98 94 97 98 98 93 86 75 74 76 71 69 67 62 58 54 51 49 53 60 59 56 56 53 46 41 37 34 31 29 30 28 27 27 26 26
87 90 93 95 97 97 97 98 98 97 98 98 98 95 86 83 76 71 70 70 67 58 54 52 51 55 67 63 59 58 56 50 43 39 37 33 30 31 29 29 28 26 27 29

GFSNGP_prec_cthk_126.txt.gz
RH
65 66 70 79 77 76 78 81 87 65 69 47 62 61 63 62 75 91 93 87 83 83 82 79 72 62 57 57 59 61 64 68 68 66 63 60 60 58 58 56 55 54 54 55
59 61 62 61 55 53 63 63 70 67 52 54 54 62 59 67 79 84 88 89 90 89 86 80 71 61 59 63 64 62 64 65 65 63 59 57 54 49 47 44 40 38 36 35
73 64 69 78 51 52 47 57 59 60 47 50 57 57 61 69 73 81 86 96 95 91 89 81 68 61 65 64 65 66 66 64 61 57 54 52 46 40 35 31 28 26 25 27
72 70 84 51 53 45 48 48 47 53 48 50 57 61 68 72 76 83 93 95 94 90 89 75 64 65 65 71 78 76 71 66 60 56 48 42 39 39 36 30 27 25 22 22
85 65 53 56 50 52 56 42 50 55 51 56 57 59 62 65 77 91 97 96 95 92 80 64 60 67 73 77 81 78 70 61 52 48 49 46 36 32 26 32 31 27 26 24
68 74 68 44 46 54 59 59 46 43 44 53 57 61 59 75 88 95 95 97 93 79 60 60 69 73 79 79 75 63 51 44 47 44 36 32 34 35 29 26 21 18 15 16
65 74 60 47 58 69 83 56 49 46 47 53 62 68 76 86 92 96 96 89 80 63 59 73 76 80 78 76 58 50 48 38 35 36 44 40 27 21 18 17 17 19 21 15
88 85 84 69 79 77 70 60 52 51 55 59 67 79 87 91 92 88 85 75 63 64 75 82 82 79 76 65 52 44 47 45 41 29 26 23 22 24 23 24 24 26 25 24
84 79 79 73 70 69 64 59 58 57 59 63 75 81 81 81 82 78 69 65 69 82 87 86 86 80 62 53 47 36 32 29 26 23 22 27 29 30 28 28 28 27 26 25
75 74 73 74 77 72 68 67 61 59 62 69 75 78 76 72 68 68 72 80 85 88 86 88 86 62 48 52 46 44 38 33 31 27 30 32 31 30 30 30 29 28 27 27
80 78 73 74 76 72 68 65 65 67 74 78 79 72 68 70 74 78 82 86 90 88 89 86 65 48 50 45 37 31 30 30 30 32 33 32 27 30 33 31 29 28 28 27
80 74 70 70 70 72 74 72 75 80 82 84 74 73 72 75 79 84 90 92 90 90 87 68 54 44 41 32 28 28 29 30 29 32 32 33 33 35 25 25 27 24 27 26
75 72 72 76 77 78 78 80 85 86 87 79 69 73 77 80 86 88 90 91 88 81 65 54 43 32 24 22 22 25 29 27 25 31 32 33 34 32 31 30 25 23 24 26
79 77 82 83 82 81 78 82 85 89 82 73 73 78 82 85 91 93 93 87 81 68 49 39 35 28 22 21 20 21 21 22 25 27 30 36 38 35 33 32 34 36 29 26
84 87 86 86 80 77 80 82 79 72 69 76 80 82 83 87 91 93 88 81 68 53 44 32 27 22 21 21 20 20 20 23 25 28 31 37 39 38 36 35 34 33 31 28
89 90 87 80 74 71 72 75 74 71 75 78 80 81 83 87 91 87 80 70 54 45 36 27 23 20 21 21 20 20 22 25 29 37 40 40 39 37 36 35 35 34 32 25
85 84 77 71 70 69 68 69 74 77 79 80 80 81 84 89 87 82 75 61 49 40 32 22 21 21 21 22 24 28 31 28 29 36 40 39 37 36 36 35 35 33 31 23
51 58 69 70 61 61 66 73 78 82 84 85 85 86 89 90 85 78 70 56 44 34 25 24 23 22 22 23 25 29 30 30 32 34 33 31 37 35 35 36 33 33 32 31
41 42 42 43 48 53 59 65 71 78 85 88 90 91 91 89 82 75 64 50 42 33 27 25 24 24 24 24 25 26 27 29 31 34 34 36 36 35 32 31 30 30 33 32
42 43 43 44 46 51 56 61 66 75 80 84 90 94 93 88 82 74 60 48 42 39 33 29 27 27 27 26 29 29 30 32 35 36 37 39 40 38 33 31 29 29 29 26
42 42 43 44 46 49 54 59 67 73 77 84 87 91 92 89 83 72 61 51 44 40 38 37 37 35 34 33 32 32 35 37 40 41 43 44 42 38 36 34 32 30 27 24
50 47 46 48 50 53 57 61 69 75 82 85 89 91 95 92 83 73 61 55 47 44 45 44 42 41 40 38 40 43 44 46 48 48 48 46 42 40 38 34 32 30 25 23
54 49 54 56 59 62 69 74 76 83 91 96 97 97 97 95 87 75 66 58 50 50 51 51 49 49 50 49 48 49 51 51 49 51 50 47 45 41 37 35 32 27 25 25
59 55 64 72 71 75 77 82 86 96 97 97 97 98 97 96 84 74 66 59 56 55 56 56 57 60 63 55 53 53 52 52 53 53 52 49 44 40 38 33 29 27 26 24
66 63 68 71 80 83 85 84 89 89 96 96 97 97 98 95 82 73 67 61 63 63 61 64 68 64 60 55 53 54 55 56 57 56 53 47 43 40 36 32 29 28 26 25
76 72 71 75 85 91 92 92 93 94 94 97 93 95 97 90 79 70 69 70 66 66 73 68 65 62 56 52 56 59 61 60 58 56 51 46 42 38 34 31 30 27 26 26
83 84 86 89 92 95 96 96 96 97 96 97 98 98 95 88 82 77 74 78 79 74 69 66 64 58 54 56 63 67 62 60 58 54 49 44 41 36 33 31 28 28 27 26

GFSNGP_prec_cthk_129.txt.gz
RH
66 65 81 84 87 80 78 78 95 76 75 69 70 69 72 72 65 63 58 66 74 76 82 82 79 76 74 69 61 61 62 62 62 63 61 60 59 57 56 51 49 51 53 49
76 73 65 64 61 55 63 65 71 73 69 62 63 63 62 75 62 59 63 68 72 77 81 82 82 82 80 71 64 65 64 63 61 59 57 54 51 50 48 53 47 43 41 37
81 69 68 69 42 56 53 48 54 58 54 51 55 59 64 78 58 57 63 67 72 82 84 83 87 85 81 68 67 67 66 62 59 54 50 46 47 47 45 42 41 37 36 35
90 80 94 60 51 49 56 55 52 58 56 54 56 61 61 57 63 62 63 70 78 91 91 90 89 86 78 70 70 64 65 63 57 56 52 53 50 42 43 43 39 35 31 28
92 76 66 58 47 60 57 52 51 60 52 51 58 56 57 59 59 62 62 72 79 90 93 92 90 83 71 64 65 69 64 55 47 43 52 50 46 40 39 38 41 42 36 29
82 86 80 52 51 61 66 67 50 47 43 48 56 57 58 56 56 58 66 75 85 97 93 94 86 69 63 69 70 67 63 47 45 41 37 37 37 40 39 40 34 31 29 25
74 81 67 41 46 66 74 43 46 50 55 60 59 56 56 59 64 68 77 86 96 97 93 89 76 61 70 73 64 60 43 40 38 44 46 53 41 33 33 30 29 28 27 26
74 78 75 47 54 61 54 60 63 65 67 61 57 57 58 66 73 80 90 96 98 94 89 77 63 67 71 68 64 57 51 39 47 35 36 37 37 35 32 31 30 28 27 26
72 74 82 79 78 77 68 70 76 72 67 60 58 59 60 67 78 89 93 94 93 88 76 65 72 80 76 72 60 45 40 32 29 30 32 34 33 33 33 32 30 28 27 27
67 49 61 66 68 74 73 72 69 64 65 61 58 59 65 72 81 84 85 85 83 73 69 79 86 83 76 60 53 43 40 40 37 34 34 34 34 34 32 31 30 29 30 28
74 63 64 61 72 75 76 74 70 68 66 65 65 67 69 76 79 80 80 80 80 79 85 89 86 82 69 52 48 44 39 33 33 34 34 32 26 31 33 23 24 29 29 29
73 84 93 88 83 78 78 77 75 74 73 74 76 77 80 84 82 81 81 83 85 88 91 90 84 73 47 52 47 36 33 32 30 31 32 35 37 34 30 27 27 25 25 28
90 92 86 76 74 73 74 79 83 83 83 83 87 88 86 80 79 81 85 91 94 96 93 88 78 51 47 46 40 32 29 29 28 33 33 34 35 36 41 34 34 32 29 24
80 82 80 76 78 77 81 85 84 84 89 92 94 90 82 80 81 86 92 93 94 93 88 75 55 51 41 31 25 22 25 29 33 35 35 35 36 37 36 37 43 43 33 31
75 76 76 78 78 83 87 86 88 86 91 95 92 83 81 82 86 90 96 96 93 85 70 58 53 47 36 26 21 20 21 23 30 33 33 35 38 38 37 39 45 44 42 32
78 80 84 87 87 85 81 79 83 88 87 82 80 85 85 87 89 93 96 95 90 79 62 50 41 37 29 24 21 21 22 23 33 34 35 37 39 39 38 37 36 36 38 30
85 90 88 84 77 78 76 76 77 82 82 79 83 85 86 86 88 91 93 90 81 63 52 47 42 33 28 22 30 31 28 24 28 36 37 38 39 39 38 39 40 40 41 35
78 74 69 78 80 78 72 70 75 76 82 84 86 86 86 87 90 92 90 83 71 58 49 46 41 33 24 23 31 33 34 34 35 36 35 32 38 39 41 42 42 43 43 41
48 40 40 43 48 53 60 65 68 76 86 91 92 90 89 92 93 91 86 75 65 55 47 41 34 27 24 24 29 31 33 32 34 40 35 32 36 38 39 45 48 47 44 40
41 39 45 48 49 50 53 55 60 66 76 84 91 94 96 97 95 87 81 73 63 57 47 41 35 31 27 25 27 33 33 34 36 39 38 42 47 48 51 45 43 47 44 42
40 41 40 41 42 45 48 51 56 64 72 78 86 90 95 97 91 86 81 78 67 58 48 42 44 43 37 32 32 32 35 38 41 44 48 54 52 51 49 49 48 45 44 42
44 46 43 44 46 48 50 53 57 61 69 77 82 89 92 95 91 88 84 80 65 58 49 49 51 48 43 40 41 39 40 43 51 56 56 55 53 53 51 46 43 41 38 34
53 47 45 50 54 56 58 62 65 68 71 78 84 90 94 98 96 91 88 80 67 59 59 59 54 49 49 47 45 45 51 57 59 57 55 52 51 51 48 46 42 39 35 30
60 51 51 58 65 69 71 70 72 75 83 85 89 94 97 97 97 95 90 75 68 61 67 59 56 56 56 52 53 58 59 60 57 56 55 55 55 53 50 45 42 37 32 30
65 61 58 61 63 67 79 81 82 84 88 93 96 96 97 97 96 96 90 74 65 70 64 62 58 57 58 63 62 60 58 56 57 58 59 58 56 54 49 45 40 36 32 30
72 71 68 68 71 80 86 89 90 90 89 89 94 88 92 97 98 97 87 74 68 72 63 63 64 64 70 67 61 58 55 58 64 64 61 59 56 52 47 43 39 34 32 30
75 78 79 81 84 87 89 91 92 93 94 94 95 97 97 95 95 96 88 82 80 75 68 68 75 77 68 62 59 55 60 69 68 63 61 58 54 50 47 42 37 34 32 30

GFSNGP_prec_cthk_132.txt.gz
RH
60 54 57 68 71 69 79 88 94 67 75 64 73 75 76 76 80 75 77 78 69 59 57 61 67 69 74 76 76 70 66 67 65 64 59 58 56 52 48 45 42 45 46 36
65 57 60 65 78 74 82 82 79 75 73 67 67 66 70 68 76 72 75 78 69 62 58 62 72 73 79 78 73 72 69 66 66 59 58 51 50 51 47 47 45 37 38 28
76 61 66 81 64 78 68 62 61 63 58 52 55 55 57 70 67 73 73 80 63 57 60 66 76 81 84 82 77 78 71 68 59 51 47 45 49 48 48 44 38 37 39 33
77 73 94 62 56 62 61 55 54 56 58 53 52 55 64 65 63 70 70 60 60 57 61 69 77 86 95 88 81 74 70 63 51 48 53 50 49 51 49 43 39 34 30 29
97 96 82 70 50 58 66 66 54 64 59 59 56 60 74 70 72 68 66 61 55 53 58 70 79 83 82 79 80 73 61 50 42 41 42 46 47 48 45 40 40 39 36 30
98 96 94 50 47 59 65 81 61 67 61 55 49 59 66 57 56 59 59 59 56 61 68 77 89 97 92 85 75 68 59 49 44 39 35 39 43 45 47 48 41 37 31 25
83 86 76 44 54 55 74 58 62 58 58 56 55 58 59 57 63 61 57 58 62 69 78 88 91 92 89 82 65 57 58 52 43 39 46 51 44 38 37 37 34 33 31 27
79 86 84 58 56 64 68 63 58 53 52 52 56 63 64 63 61 60 63 65 71 81 93 97 95 93 85 67 60 61 47 44 41 49 39 36 38 39 38 36 32 31 31 28
90 86 77 76 69 74 72 75 66 60 59 66 69 69 69 65 62 62 65 71 82 94 97 95 92 87 70 59 67 58 49 47 43 35 37 39 38 39 36 33 33 32 29 27
60 49 55 43 46 58 62 67 65 73 72 64 67 71 70 67 65 63 66 76 87 92 94 92 84 70 65 72 66 57 50 44 39 38 37 40 36 29 28 30 30 30 29 25
76 69 79 64 61 63 58 60 66 69 69 71 69 71 67 65 66 66 71 80 86 87 83 81 74 77 78 74 66 57 49 40 39 37 31 29 28 27 26 25 24 23 25 26
77 77 85 80 84 88 82 75 78 75 74 75 72 71 72 73 73 74 83 84 84 83 83 83 83 84 81 74 61 54 44 44 36 37 37 35 34 34 34 33 31 28 24 23
84 77 79 79 78 86 86 80 76 74 75 76 79 81 81 82 83 87 88 87 88 87 88 87 88 86 78 67 55 55 47 38 36 33 32 34 36 37 37 37 36 36 33 30
82 77 79 78 81 83 79 77 81 78 82 84 85 87 89 93 94 90 87 86 88 92 94 93 93 81 63 51 50 48 43 34 32 32 33 35 35 34 35 38 40 38 35 31
83 79 78 77 76 80 82 83 82 85 88 87 89 94 97 97 91 89 88 90 94 97 96 96 85 67 53 48 47 44 35 29 29 31 34 34 34 34 34 37 39 41 38 31
79 76 77 78 79 81 83 85 85 83 84 89 93 96 92 90 89 89 92 95 97 97 97 89 71 55 52 46 39 33 28 26 30 30 34 35 34 35 35 37 38 38 36 32
75 77 79 82 84 84 79 81 82 79 85 92 93 91 88 91 90 94 96 96 97 95 83 70 58 50 47 43 40 32 30 28 32 34 35 34 34 34 36 37 36 38 37 35
68 75 77 80 77 77 81 79 78 76 81 80 87 88 89 92 91 91 92 93 95 89 75 63 55 48 46 48 47 39 30 27 32 31 31 34 34 36 39 41 39 40 46 47
70 70 61 51 44 46 55 65 68 68 72 83 87 93 93 92 94 94 93 96 95 82 68 58 51 47 49 51 48 41 32 29 30 30 29 29 30 32 35 41 48 52 51 48
59 52 46 43 47 49 50 53 56 59 65 74 83 92 96 97 97 97 97 95 85 71 59 53 48 47 43 41 40 37 32 32 32 30 30 32 33 36 46 52 49 51 50 48
49 44 40 39 40 41 42 45 49 54 60 67 74 81 89 96 97 97 96 92 86 74 64 58 53 49 44 42 42 38 37 36 34 33 34 39 50 60 58 55 54 52 48 46
40 43 44 40 40 42 45 48 51 53 57 60 68 77 84 90 95 97 97 93 87 78 68 61 58 52 49 47 47 46 45 45 44 45 50 61 65 61 59 54 52 50 48 44
44 49 46 42 48 53 55 57 60 60 61 66 69 70 81 90 92 97 97 97 90 79 69 67 63 58 54 52 51 50 48 48 50 57 63 62 59 58 56 55 53 51 47 43
50 55 52 47 52 57 59 65 70 71 70 73 80 86 81 82 90 96 97 97 91 81 75 69 64 62 60 57 54 54 55 57 60 65 60 57 59 60 58 55 53 51 46 42
55 60 61 55 55 58 60 68 76 78 79 80 82 88 91 94 93 95 97 97 88 81 75 72 67 62 60 59 58 55 57 64 64 61 59 61 65 62 58 56 53 49 45 42
66 66 65 65 62 63 69 76 79 82 84 85 85 87 91 89 96 97 95 95 84 80 75 71 67 65 63 60 57 63 68 68 62 58 64 69 66 61 58 55 52 48 44 38
68 68 68 71 74 76 79 82 84 85 86 87 89 92 95 96 95 93 95 94 86 84 76 72 68 67 65 65 76 73 65 60 59 69 72 68 63 60 58 55 50 44 40 37

GFSNGP_prec_cthk_135.txt.gz
RH
74 69 71 83 76 71 77 81 86 68 77 64 67 79 80 86 91 90 85 85 85 85 78 71 62 60 63 66 67 65 68 66 66 63 62 58 56 50 47 42 43 41 39 34
95 77 74 83 81 80 82 82 84 82 75 67 72 78 81 78 82 78 75 80 82 81 80 74 63 63 64 64 64 67 71 70 67 64 57 56 49 43 41 42 43 46 37 33
85 75 75 78 70 70 72 69 66 74 66 63 68 69 66 69 67 73 70 74 78 78 79 75 67 66 61 63 64 69 72 80 64 60 54 44 37 46 45 44 41 41 40 35
85 77 91 67 57 56 59 58 62 65 68 64 62 65 70 65 64 69 70 75 80 80 79 71 64 60 59 60 67 72 70 67 62 57 47 41 44 46 46 48 44 39 31 28
92 83 73 64 54 64 73 73 62 65 67 68 64 71 75 71 69 72 74 80 85 83 72 64 60 58 63 68 76 73 72 67 59 49 34 39 37 41 47 43 40 37 36 34
85 87 81 53 60 66 73 73 61 64 64 63 63 71 72 69 69 69 68 78 78 75 71 66 63 65 69 79 78 81 76 62 52 41 36 34 38 46 47 52 46 41 32 26
82 89 79 61 65 62 75 66 61 61 64 62 67 70 68 67 66 68 72 70 66 66 67 69 68 73 80 82 82 79 70 59 50 37 40 45 44 41 41 41 38 36 32 26
90 97 89 65 66 73 78 74 66 63 65 65 65 64 64 64 64 65 65 66 66 68 69 74 78 84 87 87 86 77 63 55 46 43 49 43 36 40 41 40 36 33 28 23
72 78 72 68 68 70 69 65 71 66 66 64 67 63 65 65 68 71 71 70 72 71 71 79 85 92 92 89 80 63 54 52 47 48 46 38 43 44 41 38 34 33 26 23
61 49 56 56 62 65 68 71 63 56 66 66 67 70 69 71 76 77 76 77 75 71 74 79 90 95 92 83 67 56 57 53 54 51 39 38 38 38 35 33 32 29 25 22
71 73 66 63 69 68 72 72 64 54 53 64 66 68 70 74 75 77 74 72 72 71 73 79 90 90 82 69 61 64 64 57 51 39 38 35 34 32 28 27 27 25 24 24
62 80 84 78 78 85 88 85 81 87 76 72 71 70 72 77 80 78 78 76 77 74 75 83 82 83 77 72 72 71 58 56 41 39 39 37 34 34 34 33 32 30 29 28
78 72 77 82 71 76 74 75 75 83 80 74 72 71 72 77 82 83 83 84 82 82 84 87 90 88 83 83 78 67 55 50 43 44 36 37 38 36 34 35 34 33 33 29
71 66 62 69 66 75 77 79 77 78 76 74 75 75 80 85 89 91 92 94 91 91 90 90 91 91 90 88 78 61 57 54 48 41 37 38 36 36 35 35 35 34 34 30
68 73 69 71 75 77 77 78 80 79 79 79 79 83 85 90 95 97 98 97 96 95 94 94 95 95 93 80 67 57 54 49 45 40 36 34 35 36 35 34 34 34 35 34
75 81 75 75 77 77 79 77 78 78 77 78 80 86 91 97 96 96 97 97 97 97 97 97 97 97 82 69 58 53 50 45 44 38 37 36 37 36 35 34 35 36 35 32
77 75 72 72 75 78 80 78 79 79 79 79 82 90 94 96 95 97 98 97 98 98 98 97 97 90 70 56 54 54 44 43 40 39 40 37 36 37 36 36 35 34 35 37
71 62 64 70 74 77 78 74 77 82 80 81 80 83 90 93 94 97 97 97 97 98 98 97 94 75 60 59 55 48 47 46 43 40 40 36 33 33 33 33 33 35 36 39
63 62 65 61 59 51 47 45 51 63 69 70 70 79 86 94 96 96 95 95 94 96 97 92 76 67 58 51 52 52 46 43 43 41 37 36 33 33 34 34 38 40 47 51
64 64 57 50 47 47 48 48 48 51 56 61 66 71 80 92 96 96 96 96 96 96 89 81 69 60 61 64 60 56 53 47 43 39 36 34 35 37 37 41 50 55 53 52
56 51 48 44 38 38 38 40 41 44 48 53 57 62 69 78 90 96 97 97 97 96 84 71 63 58 56 55 54 50 46 44 41 39 37 38 40 45 56 60 58 56 56 53
51 41 41 41 39 38 41 44 47 49 51 54 58 60 64 71 81 89 97 97 97 94 83 71 65 59 58 56 53 53 52 51 50 48 49 52 55 60 63 63 59 58 56 54
41 42 46 46 42 46 50 53 56 61 62 61 62 65 70 69 72 82 92 97 97 95 84 78 75 69 62 59 57 54 52 52 52 51 52 59 68 63 62 60 62 60 57 54
44 47 51 53 47 47 52 55 57 63 68 70 71 71 74 79 81 84 87 97 96 97 88 82 79 71 65 62 60 60 59 58 56 59 64 67 64 62 64 66 64 60 56 54
50 51 54 58 57 51 51 55 61 69 71 73 76 78 79 81 83 87 92 91 94 96 91 87 81 76 74 70 69 65 61 59 59 63 66 68 62 64 68 67 62 59 57 55
60 60 62 63 63 63 61 65 71 73 75 76 78 80 83 87 87 86 90 94 96 93 87 84 80 75 72 65 62 61 59 58 66 72 68 63 66 72 69 65 61 60 58 54
66 67 66 64 64 66 70 74 77 78 78 80 82 83 86 88 89 92 93 94 95 93 87 86 79 75 72 70 67 62 64 74 70 69 67 68 75 71 68 66 62 59 56 49

GFSNGP_prec_cthk_138.txt.gz
RH
96 97 84 74 71 73 74 81 83 65 76 78 82 83 82 78 76 83 87 89 89 89 86 82 82 85 79 70 67 68 69 66 62 57 54 53 53 43 44 43 40 43 40 35
97 98 97 95 93 91 98 98 97 94 84 75 72 76 77 83 88 86 95 85 90 90 85 84 84 89 84 73 72 69 66 63 59 54 54 53 50 42 42 39 40 42 44 40
89 98 96 92 84 86 81 84 89 94 74 69 70 70 72 74 67 68 75 87 91 86 86 86 87 94 84 72 70 66 61 61 60 54 51 49 45 42 39 39 38 39 43 44
93 91 96 66 64 69 75 74 74 75 72 68 67 67 66 67 63 58 64 66 76 85 89 92 92 91 83 72 69 67 66 64 58 53 54 49 45 42 39 40 40 39 37 32
82 82 69 57 54 71 73 73 75 74 72 64 67 72 73 65 67 65 65 72 80 82 88 92 89 89 84 76 73 70 66 64 57 52 55 42 42 36 37 37 34 33 35 40
72 79 74 49 58 71 58 66 68 69 68 67 66 72 69 66 67 69 71 72 78 86 92 93 87 87 80 77 76 73 68 68 58 56 46 41 37 42 49 47 43 39 34 30
76 84 66 47 53 72 74 63 60 63 68 64 65 68 62 66 71 71 69 68 72 79 85 83 79 74 74 76 77 76 73 64 62 56 45 42 42 52 49 40 37 36 32 27
86 85 74 60 66 71 76 60 62 65 64 63 65 66 67 69 70 69 68 71 77 76 78 74 74 75 76 80 81 79 71 68 62 53 47 44 54 42 39 40 42 37 29 24
66 58 49 48 55 61 65 63 61 62 60 59 63 64 63 66 68 71 74 74 72 73 72 77 76 80 80 82 83 81 74 66 58 55 52 49 49 41 45 45 42 35 30 27
47 40 39 38 40 44 47 50 60 67 70 67 63 66 70 69 72 76 75 77 77 77 84 84 84 82 82 87 86 87 74 61 56 52 53 52 43 46 46 44 38 32 29 28
42 37 38 41 53 57 55 54 61 74 79 75 69 66 66 67 72 77 80 81 79 79 83 86 86 83 86 87 85 79 64 62 60 57 54 50 41 41 40 39 34 28 27 28
37 31 37 42 52 59 53 64 71 78 78 80 81 75 68 68 71 74 76 76 85 87 88 89 87 86 87 86 81 70 67 67 65 57 50 35 33 34 37 36 32 29 28 29
30 38 44 46 47 54 61 61 68 76 76 81 84 83 79 75 72 73 76 82 88 91 91 91 92 91 90 89 81 71 71 69 61 56 45 38 42 42 38 40 39 35 33 36
40 43 49 54 55 57 55 62 67 72 76 78 82 79 72 72 76 76 82 88 94 96 97 97 95 94 93 87 85 83 78 61 57 53 44 45 43 40 41 39 36 35 32 28
36 40 54 72 74 61 60 68 73 76 81 87 88 82 79 79 80 86 91 95 98 98 97 97 98 97 96 94 93 89 70 60 58 50 48 48 44 43 43 39 37 35 34 32
47 64 80 85 80 67 70 77 77 79 80 81 78 76 78 83 89 95 97 97 97 97 97 97 97 96 97 97 94 82 72 63 58 55 51 50 46 44 44 41 38 38 38 38
80 89 88 81 79 78 77 78 78 78 74 76 78 80 80 85 95 97 98 98 98 97 97 97 97 97 97 95 87 72 63 58 54 52 52 47 44 44 43 42 40 38 38 36
92 89 80 73 75 73 71 73 75 76 70 75 81 83 86 86 93 98 98 97 97 98 98 98 98 98 97 91 75 64 59 55 47 47 47 47 48 47 46 44 42 39 39 39
90 76 67 63 63 62 60 54 52 50 51 56 65 73 75 81 89 96 97 97 97 98 98 97 98 98 95 79 66 66 60 55 52 52 49 48 44 42 43 43 43 42 42 45
73 66 68 62 55 48 47 48 46 43 44 47 52 59 68 77 82 89 96 98 98 98 97 97 98 97 83 68 65 57 54 55 54 51 49 47 45 45 43 44 46 51 55 59
66 65 52 48 46 37 34 35 36 38 42 45 49 52 55 61 68 78 89 96 97 98 98 98 96 86 78 68 64 66 64 61 58 53 48 46 44 44 45 48 57 63 62 61
60 53 48 41 37 34 35 39 43 47 50 52 53 55 58 60 63 66 77 88 97 97 97 93 85 75 70 69 63 61 57 54 52 49 47 46 48 53 61 66 65 64 63 63
55 44 41 43 42 39 43 48 51 53 56 60 61 63 64 66 68 68 70 77 88 97 97 91 83 78 70 65 62 60 57 57 58 59 55 55 57 63 70 68 66 66 67 65
42 42 43 48 50 47 45 48 52 55 59 66 68 70 71 72 74 75 76 81 82 90 97 94 84 79 79 74 70 69 66 62 60 60 60 61 69 71 70 66 67 70 69 64
46 45 48 50 54 55 52 50 52 56 64 68 70 72 74 76 79 81 80 82 87 89 95 96 91 86 80 77 73 70 69 68 67 66 64 62 67 71 69 67 70 71 69 64
54 52 52 55 59 60 61 61 64 67 69 70 71 73 76 78 80 84 88 88 87 90 93 91 88 83 81 81 79 74 70 63 59 59 63 71 72 72 71 74 74 71 69 66
60 62 63 62 60 59 61 64 67 68 69 71 72 74 77 79 82 85 88 90 93 95 95 94 92 86 82 77 74 68 65 63 64 70 73 75 74 73 78 79 73 71 70 64

GFSNGP_prec_cthk_141.txt.gz
RH
99 96 96 98 95 84 88 81 78 76 77 74 75 78 80 80 80 80 82 82 80 83 86 84 85 87 91 88 83 78 77 74 68 64 56 52 48 39 35 32 32 35 33 35
96 94 97 94 84 91 93 98 98 97 95 88 84 83 81 86 83 82 80 79 81 82 84 95 95 92 90 91 88 88 80 72 68 63 55 54 44 36 28 33 36 33 32 30
94 92 93 85 78 81 88 97 96 95 90 92 93 87 83 82 77 74 72 76 75 76 76 80 86 91 93 92 96 88 77 76 68 68 59 51 41 35 35 36 35 32 31 34
96 95 96 56 63 69 75 77 84 82 79 84 89 86 83 80 77 73 72 72 72 74 77 85 89 88 89 98 98 88 81 75 74 71 60 48 38 35 34 35 34 33 33 29
97 91 63 48 56 59 69 68 72 68 71 79 86 87 85 77 78 72 72 70 70 72 76 79 89 95 98 94 97 94 81 76 75 67 57 46 38 34 36 34 36 29 30 34
88 84 71 52 54 54 55 65 66 65 66 74 83 93 83 82 80 74 70 68 72 69 75 78 88 93 93 91 96 86 81 76 72 63 56 46 39 39 35 41 45 37 35 32
81 79 58 49 58 61 66 66 64 62 65 70 77 74 69 73 70 69 66 60 67 69 70 73 78 85 90 94 85 80 81 79 71 63 54 48 46 42 40 49 45 34 28 30
75 80 74 56 61 63 63 64 63 64 64 67 66 70 70 71 67 66 64 64 66 70 71 76 79 82 86 81 84 84 84 81 70 58 53 54 50 47 49 50 38 35 33 31
62 67 58 51 46 39 36 39 42 48 56 65 64 62 64 67 65 63 64 64 68 72 79 80 80 81 85 82 82 83 86 75 66 62 58 57 54 50 53 43 41 37 31 29
60 44 42 38 35 34 34 38 43 43 48 53 64 64 62 62 63 67 67 66 70 78 81 78 78 81 86 89 90 88 80 74 67 62 59 58 57 53 53 42 43 40 35 31
51 41 34 28 28 33 37 41 46 52 54 63 65 70 72 70 63 62 63 68 75 74 75 80 81 86 89 90 92 91 86 78 69 66 59 60 58 55 50 45 44 38 35 33
46 34 28 27 29 33 38 49 58 58 61 74 82 76 75 73 71 71 73 71 70 72 72 75 83 87 90 94 96 95 89 78 70 65 65 64 58 57 49 43 39 38 37 37
33 27 27 28 30 30 32 37 45 53 65 76 79 80 82 81 76 76 79 76 73 71 73 81 88 90 93 95 97 97 90 77 72 73 68 59 55 45 38 38 37 36 36 38
26 29 29 29 30 31 36 46 53 60 66 74 69 70 70 69 73 71 72 72 75 78 83 91 96 98 98 98 98 95 86 76 76 71 61 55 53 49 43 42 42 40 43 40
25 31 31 33 36 39 54 70 80 81 78 76 75 75 78 79 81 83 81 80 81 85 93 97 97 98 97 97 97 93 84 86 77 65 64 62 55 51 48 47 43 44 41 38
33 38 40 46 49 63 84 87 90 85 87 82 80 80 76 79 80 80 79 82 89 94 98 98 98 97 97 97 97 97 97 84 71 67 68 58 52 53 54 49 47 47 46 43
49 60 71 87 91 92 87 89 91 92 89 82 74 73 74 76 79 80 84 91 97 97 98 98 97 97 97 97 97 97 89 79 73 70 64 60 59 59 55 52 50 49 47 46
59 67 83 91 86 82 84 86 86 84 80 76 76 74 76 83 87 89 87 94 97 97 98 97 97 97 97 97 97 94 91 82 72 64 61 61 57 58 54 52 52 50 50 49
74 79 88 87 72 69 68 69 67 66 62 58 55 58 65 73 76 78 83 89 97 97 97 97 97 97 97 97 97 88 80 71 64 59 57 56 59 58 55 54 52 50 49 51
84 87 74 68 68 64 60 54 53 54 47 44 45 48 51 55 61 68 77 86 91 97 97 98 98 98 98 98 93 81 72 65 64 62 61 63 58 57 55 53 54 53 53 56
88 70 68 68 58 51 47 39 36 37 40 44 45 47 50 53 55 60 64 69 81 91 98 98 98 98 98 98 83 83 79 66 60 62 64 63 61 57 55 53 52 54 60 65
73 65 59 55 50 39 34 35 39 44 48 51 53 54 54 55 57 58 62 66 68 77 93 98 98 98 98 94 76 64 63 68 72 69 64 60 55 53 52 53 59 69 69 68
60 61 57 47 40 37 35 40 47 50 52 55 60 61 63 65 66 66 66 67 70 75 80 93 98 98 93 82 77 77 75 72 68 65 61 58 55 55 57 63 71 72 70 69
64 54 42 42 45 47 45 45 48 50 53 58 64 67 68 69 71 74 76 75 76 77 80 88 94 95 90 87 79 73 68 65 63 64 67 65 61 62 65 74 73 71 69 72
45 42 42 44 49 52 53 51 50 52 57 63 67 68 69 71 73 77 80 82 84 83 83 84 91 92 89 85 83 80 80 76 72 68 66 67 69 71 68 71 73 74 76 77
48 48 47 48 50 55 58 59 59 61 64 65 66 67 68 71 74 76 79 82 86 90 92 92 90 84 86 88 86 84 80 75 76 75 72 66 62 64 72 79 76 78 80 76
54 55 55 56 59 60 58 57 60 64 64 64 65 66 66 68 70 72 75 80 85 89 93 96 98 97 92 88 86 84 83 79 74 67 62 66 72 79 80 77 80 83 81 79

GFSNGP_prec_cthk_144.txt.gz
RH
88 80 79 81 87 85 94 87 98 96 93 56 70 78 72 72 79 77 74 74 76 77 83 85 86 84 82 78 79 84 87 90 82 79 78 73 60 52 44 37 32 28 25 25
86 77 73 66 61 73 81 88 90 94 93 87 84 82 80 80 83 89 84 77 82 83 81 87 84 83 81 84 87 87 94 92 85 86 78 67 58 50 43 34 29 27 24 25
77 70 78 79 55 66 67 72 81 79 74 84 89 91 84 88 85 89 91 90 86 92 87 85 88 90 86 89 89 90 95 95 84 80 76 68 59 51 40 32 27 27 27 28
87 85 96 57 56 58 58 57 62 62 67 74 78 85 89 88 87 87 93 92 89 88 91 91 94 94 94 96 92 98 98 92 85 82 75 66 60 50 37 31 26 26 27 30
96 96 82 62 53 58 64 51 53 58 64 68 72 80 84 86 87 87 90 93 92 91 94 91 90 96 98 95 96 93 96 95 89 82 74 67 58 47 36 30 29 30 31 31
94 97 84 55 54 59 60 55 48 53 67 69 73 82 76 79 80 81 85 88 92 94 95 96 97 98 99 96 98 95 95 95 89 80 75 67 54 43 37 34 31 37 40 34
95 96 73 55 50 58 64 57 59 65 67 68 68 71 69 68 75 82 79 79 83 88 88 93 94 97 99 96 92 92 90 90 86 77 72 62 53 43 39 36 38 46 39 34
96 94 78 48 53 54 50 48 52 51 53 60 64 66 64 65 70 74 75 73 75 81 86 86 89 95 93 96 99 91 88 82 79 74 71 67 54 46 41 42 45 44 35 32
77 65 49 53 53 42 39 38 41 39 39 42 42 50 54 58 61 68 71 72 76 78 84 88 88 91 97 96 91 87 81 78 75 73 71 64 56 51 46 47 48 41 33 33
74 58 58 65 48 36 32 30 29 33 37 37 37 42 50 53 62 69 68 68 71 77 78 84 85 82 92 95 98 86 85 87 82 76 70 66 60 51 50 50 48 41 34 36
70 63 61 49 36 30 29 33 34 33 37 40 44 49 50 57 66 71 72 73 74 78 80 80 84 87 91 88 91 88 92 91 85 83 72 67 61 55 55 57 54 43 36 39
67 59 53 38 30 31 36 34 33 33 38 45 52 57 57 64 74 74 76 78 76 75 78 78 85 88 90 90 88 92 95 93 90 85 76 68 65 64 62 60 55 43 40 42
58 48 44 39 37 37 38 35 34 34 35 42 50 58 62 67 76 74 78 80 83 87 87 84 85 86 87 90 93 97 98 97 93 83 75 66 66 67 61 59 55 45 44 44
44 40 39 38 40 39 36 33 35 39 42 47 56 61 71 74 71 77 84 89 89 89 85 87 88 89 92 94 97 98 98 97 87 76 72 75 73 64 62 55 48 48 49 47
34 31 30 29 32 33 33 37 45 54 55 66 75 81 83 83 84 87 90 91 94 96 95 93 90 91 93 96 98 97 97 95 85 77 86 74 67 65 63 57 52 50 47 48
24 23 25 28 32 38 47 56 66 66 80 93 92 89 88 85 83 84 89 96 96 95 92 91 93 95 96 96 96 96 98 89 90 93 78 74 72 69 61 58 55 52 49 48
29 34 36 44 50 62 72 76 84 95 98 96 94 91 80 78 80 81 83 87 89 91 94 98 98 98 98 98 98 97 96 97 92 85 80 70 75 68 61 56 56 59 56 54
32 37 41 55 72 72 77 84 86 90 92 90 84 79 80 81 78 81 90 94 94 93 96 98 98 98 98 98 97 97 97 93 90 84 77 77 69 64 61 60 64 63 60 56
41 44 55 72 76 77 79 72 71 76 75 65 59 58 59 59 64 71 79 84 86 89 93 98 98 98 98 98 98 98 97 95 90 83 79 72 71 72 66 64 64 61 58 58
50 60 77 83 72 65 66 62 57 53 54 50 45 44 45 47 51 55 59 66 73 84 91 94 98 97 97 97 98 98 97 93 85 77 71 65 65 64 64 68 65 62 61 60
72 74 81 68 64 62 52 50 46 41 38 41 45 46 45 47 51 54 54 57 61 66 73 85 95 98 97 97 98 97 90 84 79 72 69 65 65 71 69 64 62 63 63 61
83 78 71 62 54 51 44 38 37 40 45 48 51 53 54 55 56 57 60 60 60 64 67 72 78 90 98 98 98 92 92 91 75 73 69 69 76 71 69 65 61 60 62 67
70 66 61 57 54 46 38 36 41 46 49 51 52 56 60 61 63 64 66 68 67 67 69 74 77 84 91 98 96 85 80 74 75 78 82 79 74 66 62 60 61 62 69 80
61 62 61 58 46 43 43 42 44 47 48 51 55 60 65 66 67 68 69 71 73 74 76 78 79 81 87 92 90 85 84 85 82 77 75 72 68 64 63 63 65 76 81 79
64 62 54 43 42 47 51 52 50 48 50 56 60 65 66 66 66 68 70 71 73 77 81 85 87 86 83 83 89 88 83 79 77 76 73 72 72 70 68 72 80 76 75 79
49 44 44 44 45 49 52 55 58 58 61 63 64 63 64 65 66 67 68 70 72 76 80 85 89 93 96 91 85 81 77 80 82 83 77 72 74 79 78 71 70 77 81 80
48 49 50 50 49 51 55 59 58 58 62 63 62 62 63 63 64 66 68 71 74 76 79 85 90 92 92 95 94 94 91 87 82 81 83 80 73 69 69 74 85 82 83 89

GFSNGP_prec_cthk_150.txt.gz
RH
47 44 57 57 52 43 48 53 64 41 41 36 31 33 35 42 43 46 50 57 59 59 64 65 74 77 83 86 87 88 86 83 81 83 87 85 82 79 75 72 60 51 48 39
58 50 59 63 48 44 49 46 48 46 52 36 45 44 44 47 48 53 57 64 69 70 73 80 81 83 88 90 91 90 91 90 92 95 91 91 86 83 78 73 64 59 45 42
54 53 62 71 41 45 48 49 49 62 44 44 46 47 46 49 52 54 61 65 71 78 80 84 86 88 92 93 96 92 95 97 97 95 95 94 92 86 81 77 68 57 49 49
54 48 68 30 31 40 51 46 40 46 43 47 44 46 55 56 55 62 69 71 74 85 97 94 94 95 96 96 98 97 97 98 98 97 97 97 97 96 83 74 64 52 46 47
54 40 36 30 22 48 49 40 42 46 48 51 48 55 60 59 57 63 68 78 85 86 95 98 98 97 98 98 98 98 98 98 98 98 98 98 96 88 78 70 60 50 46 42
58 63 53 25 30 39 53 51 49 51 56 51 49 58 62 57 52 56 65 76 86 94 96 98 99 98 98 98 98 98 98 98 98 98 98 98 93 80 72 62 54 49 45 40
77 83 59 33 44 63 69 40 47 51 51 48 48 46 41 39 43 50 53 62 75 84 88 95 97 98 98 98 98 98 98 98 97 97 97 97 92 83 73 59 50 47 42 38
60 72 74 57 70 82 72 64 56 58 48 44 40 33 30 31 34 35 36 40 51 62 74 83 89 97 99 98 98 98 98 98 98 98 96 97 90 79 68 59 52 48 44 44
49 44 39 67 62 65 83 75 69 59 52 32 28 26 26 30 30 36 36 38 39 44 48 64 79 88 94 96 98 98 98 98 97 97 97 95 82 73 66 57 59 57 53 50
74 47 50 55 55 62 73 71 64 53 40 28 21 22 25 29 31 33 38 41 42 45 47 52 65 76 89 93 95 97 97 97 98 97 97 89 80 69 67 66 63 62 55 53
50 54 52 57 69 79 73 71 68 57 32 24 22 25 28 32 35 37 40 41 42 43 48 53 58 76 81 87 94 98 98 98 97 97 97 92 85 82 73 71 69 64 61 59
34 61 67 84 88 83 76 77 76 61 39 28 27 30 32 35 38 39 40 42 44 50 57 58 63 73 82 88 88 92 96 97 98 97 97 95 88 79 74 70 64 61 62 61
65 76 86 87 92 85 81 78 67 54 39 37 35 33 33 37 39 41 43 48 50 56 64 69 76 85 87 88 90 88 92 95 94 89 89 86 83 80 76 73 71 62 59 55
75 88 92 94 85 82 76 68 57 46 39 33 31 35 40 44 48 52 55 60 65 68 73 78 87 92 93 95 96 94 96 96 94 91 89 89 87 87 86 79 75 72 63 60
83 98 95 88 80 71 58 46 37 33 32 33 39 49 60 67 65 67 77 85 91 93 96 96 94 96 95 95 95 96 95 94 93 92 90 93 95 90 89 88 84 78 68 71
87 87 81 66 57 48 40 36 36 36 43 57 63 69 78 95 97 97 98 98 98 99 98 96 96 97 96 96 97 97 97 97 95 93 95 97 93 89 87 84 84 79 77 81
49 44 34 31 30 28 35 41 45 52 67 75 77 80 84 87 85 86 85 85 86 86 87 89 91 95 98 98 96 93 95 97 98 98 98 96 92 89 90 90 83 81 83 74
39 37 29 31 36 40 42 49 60 71 74 81 78 77 76 72 71 72 72 75 80 80 82 89 92 93 93 94 96 97 98 98 98 98 98 97 97 98 91 86 89 89 81 75
34 34 31 38 42 44 50 59 74 73 69 65 61 58 53 53 53 52 54 56 59 64 69 74 80 85 88 88 90 92 97 97 97 98 98 98 95 93 87 93 96 83 76 72
36 40 44 47 50 60 75 77 69 62 59 55 52 48 43 41 43 45 48 51 54 54 57 58 60 63 67 72 76 84 90 95 97 98 98 98 94 89 87 96 89 84 79 74
44 46 50 59 67 87 82 69 58 54 54 46 40 41 43 44 45 47 49 52 53 56 57 57 58 60 61 62 68 71 74 83 90 96 95 94 92 92 93 85 88 92 83 75
70 71 72 71 83 86 71 56 50 46 42 39 43 44 46 48 50 51 53 55 56 58 59 60 62 62 63 64 67 70 73 79 84 88 96 95 93 91 85 80 80 84 81 87
78 82 85 86 82 74 59 53 48 43 41 43 43 45 47 48 51 56 57 56 56 58 60 62 63 66 68 69 71 74 76 80 87 88 93 92 87 82 80 78 79 78 79 83
65 72 78 78 73 64 57 54 49 44 44 42 44 46 47 49 53 57 56 56 56 57 58 61 65 68 71 74 77 81 85 88 93 92 91 85 84 90 87 93 95 88 78 73
64 70 71 70 67 60 58 57 50 49 50 48 49 54 56 58 58 55 56 55 55 56 57 60 64 68 72 77 82 86 94 96 96 93 91 91 95 96 93 87 80 74 74 75
61 68 69 69 63 56 53 51 52 54 54 57 59 59 57 55 56 56 55 56 56 56 58 61 64 68 72 78 84 88 88 91 87 86 86 87 86 85 83 83 84 82 81 85
65 60 65 63 49 46 48 50 51 54 55 58 57 57 56 55 54 56 58 58 57 58 60 62 63 67 72 76 83 87 87 90 91 89 86 82 82 82 82 81 83 83 77 75